This demonstration page uses our WeatherBlox Daily Observations layout. Learn more.

Left ArrowRight Arrow

44.8408, -93.29828

Hourly Observations for July 20, 2017

Temp ( °F °C ) Dew Point ( °F °C ) Humidity (%) Winds ( mph kmh ) Pressure ( in mb ) Visibility ( mi km ) Precip ( " mm )
12:12 am 00:12 Cloudy 70 21.1 67 19.4 90 90 NE 6 9 29.94 1014 9 14 0.00 0.00
12:53 am 00:53 Cloudy 70 21.1 67 19.4 90 90 E 5 7 29.92 1013 10 16 0.00 0.00
1:53 am 01:53 Mostly Cloudy with Mist and Fog 70 21.1 68 20 93 93 WSW 3 6 29.90 1013 5 8 0.00 0.00
2:53 am 02:53 Mostly Cloudy with Mist and Fog 70 21.1 67 19.4 90 90 N 7 11 29.92 1013 6 10 0.00 0.00
3:53 am 03:53 Mostly Clear with Mist and Fog 69 20.6 66 18.9 90 90 N 3 6 29.93 1014 6 10 0.00 0.00
4:53 am 04:53 Mostly Clear with Mist and Fog 69 20.6 67 19.4 93 93 N 3 6 29.93 1014 6 10 0.00 0.00
5:53 am 05:53 Partly Cloudy with Mist and Fog 68 20 66 18.9 93 93 Calm 29.97 1015 6 10 0.00 0.00
6:31 am 06:31 Mostly Cloudy with Mist and Fog 70 21.1 67 19.4 90 90 SE 3 6 29.94 1014 5 8 0.00 0.00
6:41 am 06:41 Cloudy with Mist and Fog 70 21.1 67 19.4 90 90 N 5 7 29.94 1014 5 8 0.00 0.00
6:53 am 06:53 Cloudy with Patchy Fog 70 21.1 67 19.4 90 90 S 3 6 29.98 1015 5 8 0.00 0.00
7:25 am 07:25 Mostly Cloudy with Mist and Fog 70 21.1 67 19.4 90 90 SSW 5 7 29.97 1015 5 8 0.00 0.00
7:41 am 07:41 Mostly Cloudy with Patchy Fog 71 21.7 68 20 90 90 Calm 29.97 1015 4 6 0.00 0.00
7:53 am 07:53 Mostly Cloudy with Patchy Fog 72 22.2 68 20 87 87 Calm 29.99 1016 4 6 0.00 0.00
8:53 am 08:53 Mostly Cloudy 74 23.3 67 19.4 79 79 N 3 6 30.00 1016 10 16 0.00 0.00
9:53 am 09:53 Mostly Cloudy 75 23.9 69 20.6 82 82 Calm 30.00 1016 10 16 0.00 0.00
10:53 am 10:53 Mostly Cloudy 79 26.1 70 21.1 74 74 Calm 30.02 1017 10 16 0.00 0.00
11:53 am 11:53 Mostly Cloudy 81 27.2 69 20.6 67 67 N 3 6 30.01 1016 10 16 0.00 0.00
12:53 pm 12:53 Mostly Cloudy 81 27.2 67 19.4 62 62 SSW 5 7 30.01 1016 10 16 0.00 0.00
1:53 pm 13:53 Mostly Cloudy 83 28.3 69 20.6 63 63 SSE 6 9 30.00 1016 10 16 0.00 0.00
2:53 pm 14:53 Partly Cloudy 85 29.4 68 20 57 57 N 7 11 30.00 1016 10 16 0.00 0.00
3:53 pm 15:53 Partly Cloudy 88 31.1 63 17.2 43 43 WSW 6 9 30.00 1016 10 16 0.00 0.00
4:53 pm 16:53 Partly Cloudy 88 31.1 66 18.9 48 48 WSW 6 9 29.99 1016 10 16 0.00 0.00
5:53 pm 17:53 Partly Cloudy 88 31.1 59 15 38 38 N 5 7 29.97 1015 8 13 0.00 0.00
6:53 pm 18:53 Mostly Sunny 88 31.1 55 12.8 33 33 SSW 5 7 29.96 1015 10 16 0.00 0.00
7:53 pm 19:53 Mostly Sunny 86 30 63 17.2 46 46 Calm 29.95 1014 10 16 0.00 0.00
8:53 pm 20:53 Mostly Clear 85 29.4 59 15 42 42 SE 3 6 29.93 1014 10 16 0.00 0.00
9:53 pm 21:53 Partly Cloudy 80 26.7 67 19.4 64 64 SE 6 9 29.94 1014 10 16 0.00 0.00
10:53 pm 22:53 Mostly Cloudy 78 25.6 69 20.6 74 74 E 7 11 29.94 1014 10 16 0.00 0.00
11:53 pm 23:53 Mostly Cloudy 76 24.4 68 20 77 77 Calm 29.93 1014 10 16 0.00 0.00

Powered by AerisWeather